Showing default

CELESTIS 17/SHERPA-FX1, 47486

Orbit data source: Space-Track

CELESTIS 17/SHERPA-FX1, 47486 is a payload satellite owned by Spaceflight Ind (US) in SSO that was launched on Sun, 24 Jan 2021 UTC via an FALCON 9 launch vehicle from the Air Force Eastern Test Range (AFETR). Payload-class satellites include a variety of spacecraft equipped with specific instruments for various scientific and technological missions. These include communications satellites like Starlink; space stations such as the ISS; scientific satellites like the Hubble; Earth observation satellites from companies like Planet Labs, Umbra, and HawkEye 360; GPS; miniature CubeSats for education and research; and military/defense satellites.

Loading next visibility...
Identifier
47486, 2021-006CB
Orbit
SSO
Country
Flag of USUS
Related business
Manufacturer
Spaceflight Ind
Mission
Operational Commercial Technology
Bus & Motor
ESPA/SHERPA-FX, Unknown motor
Mass
130 kg wet, 130 kg dry
Launch date (UTC)
2021-01-24 (5 years ago)
Launch vehicle
FALCON 9
Launch site
Air Force Eastern Test Range (AFETR)
Object type
Payload
Rocket body
Debris
Shape & HBR
Cyl, 0.4 m
Radar Cross Section
0.503 m², Medium (>0.1 m² and < 1m²)

Expand to show TLE details & history
Last TLE update: 13 hours ago

TLE from 13 hours ago
0 CELESTIS 17/SHERPA-FX1
1 47486U 21006CB  26036.67744763  .00010114  00000-0  34482-3 0  9990
2 47486  97.2453  80.9030 0005417 318.8781  41.2052 15.30539280279170
Epoch: 2026-02-05T16:15Z
TLE epoch observation values (Epoch: 2026-02-05T16:15:31.475Z)
Latitude
0.00005°
Longitude
61.19561°
Altitude
474.519 km
Speed
7.63 km/s
True Right ascension
05h 23m 36s
True Declination
0° 00' 00"
Sunlit
Object was in full shadow at epoch
Visualization orbit readout
Latitude
Unknown
Longitude
Unknown
Altitude
Unknown
Speed
Unknown
Apparent Right ascension
Unknown
Apparent Declination
Unknown
Sunlit
N/A
Visualization observer readout
Local Sidereal Time
07:35:45
Azimuth
Unknown
Elevation
Unknown
Doppler factor
Unknown
Orbital elements
Apogee altitude
474.857 km
Perigee altitude
467.437 km
Semi-major axis
6,849.284 km
Eccentricity
0.00054
Inclination
97.2453°
RAAN
80.903°
Arg. of periapsis
318.8781°
True anomaly
41.24611°
Mean anomaly
41.2052°
Eccentric anomaly
41.22565°
Mean motion
3.82891 °/min
Orbital period
94.02 mins
BSTAR
0.00034482
Loading maneuver chart data...
Computing Atmospheric mass density...

Documentation

Showing up to 5 results
|